CAPE
2 3 5 6 6 6 5 7 6 6 7 7 9 9 8 5 5 5 3 1 1 3 0 3 3 2 2 nan 0 0 0 1 2 2 4 8 12 12 12 11 11 6 3 3 3 4 5 10 10 13 8 3 3 3 5 6 6 12 16 22 22 34 43 53 53 59 63 66 67 67 54 43 32 32 21 16 14 14 16 19 19 21 24 28 28 30
3 3 5 5 5 6 4 6 5 5 4 3 5 5 6 5 3 3 2 1 1 1 1 4 4 6 8 2 0 0 0 1 3 3 6 11 12 12 11 12 12 8 5 6 6 6 8 8 8 5 2 1 2 2 3 5 5 6 8 13 13 19 27 29 29 33 38 39 36 36 28 22 16 16 12 9 10 10 15 17 17 22 26 29 29 35
2 2 3 5 5 3 2 5 5 5 5 3 4 4 5 5 4 4 1 2 2 3 1 2 2 5 7 2 0 0 1 1 5 5 8 11 10 10 7 6 6 5 6 7 7 7 1 0 0 0 1 1 2 2 2 3 3 4 5 9 9 11 15 15 15 16 19 21 20 20 14 13 7 7 7 9 11 11 14 16 16 16 23 26 26 34
nan 0 1 4 4 3 2 3 5 5 3 3 4 4 4 4 3 3 3 1 1 1 0 0 0 1 4 4 0 0 2 4 7 7 9 7 5 5 4 3 3 5 6 5 5 1 nan nan nan 0 0 1 1 1 2 3 3 5 7 9 9 11 13 14 14 16 17 16 15 15 11 8 6 6 6 8 9 9 13 13 13 13 16 22 22 29
0 1 1 1 1 3 3 3 2 2 2 3 3 3 4 3 4 4 5 2 2 1 0 nan nan 0 0 3 2 2 2 5 5 5 5 3 2 2 2 1 1 2 1 0 0 nan nan nan nan nan 0 0 1 1 2 5 5 7 10 14 14 17 18 19 19 20 20 17 14 14 8 6 6 6 7 7 9 9 11 13 13 14 16 19 19 24
0 1 1 1 1 1 3 4 2 2 1 1 1 1 0 1 3 3 3 3 3 2 0 0 0 0 0 1 nan nan nan 0 0 0 nan nan 0 0 0 nan nan nan nan nan nan nan nan nan nan nan nan 0 0 0 1 3 3 5 9 15 15 18 21 20 20 17 17 16 13 13 10 7 7 7 6 8 9 9 13 16 16 19 23 22 22 25
0 1 1 1 1 2 4 3 1 1 1 0 0 0 nan 0 0 0 1 1 1 1 0 nan nan nan nan nan nan nan nan nan nan nan nan nan nan nan nan nan nan nan nan nan nan nan nan nan nan nan nan nan nan nan nan nan nan 0 4 7 7 11 16 16 16 16 15 11 10 10 10 9 9 9 9 9 12 12 16 20 20 24 26 28 28 29
0 0 0 1 1 1 3 2 0 0 0 0 nan nan nan 0 0 0 0 nan nan nan nan nan nan nan nan nan nan nan nan nan nan nan nan nan nan nan nan nan nan nan nan nan nan nan nan nan nan nan nan nan nan nan nan nan nan nan nan nan nan nan 3 6 6 10 14 16 14 14 13 12 14 14 14 14 12 12 15 18 18 23 29 33 33 37
0 0 0 0 0 0 0 1 0 0 nan 0 nan nan nan nan nan nan nan nan nan nan nan nan nan nan nan nan nan nan nan nan nan nan nan nan nan nan nan nan nan nan nan nan nan nan nan nan nan nan nan nan nan nan nan nan nan nan nan nan nan nan 0 4 4 9 14 15 17 17 16 17 16 16 15 14 10 10 11 15 15 18 26 32 32 37
1 0 0 1 1 4 1 0 0 0 0 nan nan nan nan nan nan nan nan nan nan nan nan nan nan nan nan nan nan nan nan nan nan nan nan nan nan nan nan nan nan nan nan nan nan nan nan nan nan nan nan nan nan nan nan nan nan nan nan nan nan nan 0 2 2 6 11 15 17 17 18 19 18 18 18 13 10 10 11 12 12 15 20 27 27 33
1 1 1 0 0 1 0 nan nan nan nan nan nan nan nan nan nan nan nan nan nan nan nan nan nan nan nan nan nan nan nan nan nan nan nan nan nan nan nan nan nan nan nan nan nan nan nan nan nan nan nan nan nan nan nan nan nan nan nan nan nan nan nan 1 1 3 6 10 14 14 17 17 17 17 14 11 11 11 11 14 14 15 20 27 27 32
0 0 nan nan nan nan nan nan nan nan nan nan nan nan nan nan nan nan nan nan nan nan nan nan nan nan nan nan nan nan nan nan nan nan nan nan nan nan nan nan nan nan nan nan nan nan nan nan nan nan nan nan nan nan nan nan nan nan nan nan nan nan nan 0 0 2 5 6 10 10 11 12 13 13 12 11 12 12 14 17 17 18 23 29 29 34
nan nan nan nan nan nan nan nan nan nan nan nan nan nan nan nan nan nan nan nan nan nan nan nan nan nan nan nan nan nan nan nan nan nan nan nan nan nan nan nan nan nan nan nan nan nan nan nan nan nan nan nan nan nan nan nan nan nan nan nan nan nan nan 0 0 1 3 4 5 5 7 8 8 8 9 13 14 14 18 22 22 23 25 30 30 36
nan nan nan nan nan nan nan nan nan nan nan nan nan nan nan nan nan nan nan nan nan nan nan nan nan nan nan nan nan nan nan nan nan nan nan nan nan nan nan nan nan nan nan nan nan nan nan nan nan nan nan nan nan nan nan nan nan nan nan nan nan nan 0 1 1 3 5 6 7 7 8 10 10 10 12 15 19 19 22 24 24 25 28 29 29 31
nan nan nan nan nan nan nan nan nan nan nan nan nan nan nan nan nan nan nan nan nan nan nan nan nan nan nan nan nan nan nan nan nan nan nan nan nan nan nan nan nan nan nan nan nan nan nan nan nan nan nan nan nan nan nan nan nan nan nan 0 0 1 4 6 6 9 11 13 13 13 14 15 15 15 16 19 22 22 22 25 25 24 26 28 28 27
nan nan nan nan nan nan nan nan nan nan nan nan nan nan nan nan nan nan nan nan nan nan nan nan nan nan nan nan nan nan nan nan nan nan nan nan nan nan nan nan nan nan nan nan nan nan nan nan nan nan nan nan nan nan nan nan nan 0 1 3 3 5 7 10 10 12 15 16 18 18 19 19 20 20 20 22 24 24 24 24 24 25 24 24 24 24
nan nan nan nan nan nan nan nan nan nan nan nan nan nan nan nan nan nan nan nan nan nan nan nan nan nan nan nan nan nan nan nan nan nan nan nan nan nan nan nan nan nan nan nan nan nan nan nan nan nan nan nan nan nan nan 1 1 2 4 6 6 7 8 11 11 13 15 16 19 19 21 23 22 22 24 26 24 24 24 24 24 25 24 24 24 23
nan nan nan nan nan nan nan nan nan nan nan nan nan nan nan nan nan nan nan nan nan nan nan nan nan nan nan nan nan nan nan nan nan nan nan nan nan nan nan nan nan nan nan nan nan nan nan nan nan nan nan nan nan nan nan 0 0 2 4 5 5 6 8 9 9 11 14 16 19 19 20 25 24 24 25 25 24 24 23 23 23 26 24 25 25 23
nan nan nan nan nan nan nan nan nan nan nan nan nan nan nan nan nan nan nan nan nan nan nan nan nan nan nan nan nan nan nan nan nan nan nan nan nan nan nan nan nan nan nan nan nan nan nan nan nan nan nan nan nan nan nan 0 0 1 3 4 4 5 5 7 7 9 10 13 16 16 18 22 24 24 27 26 26 26 27 27 27 27 25 25 25 25
nan nan nan nan nan nan nan nan nan nan nan nan nan nan nan nan nan nan nan nan nan nan nan nan nan nan nan nan nan nan nan nan nan nan nan nan nan nan nan nan nan nan nan nan nan nan nan nan nan nan nan nan nan nan nan 0 0 1 2 3 3 4 4 5 5 6 8 9 13 13 16 19 23 23 24 24 26 26 27 26 26 27 26 25 25 24
nan nan nan nan nan nan nan nan nan nan nan nan nan nan nan nan nan nan nan nan nan nan nan nan nan nan nan nan nan nan nan nan nan nan nan nan nan nan nan nan nan nan nan nan nan nan nan nan nan nan nan nan nan nan nan nan nan 0 1 1 1 2 3 4 4 5 6 8 10 10 13 17 19 19 20 21 23 23 24 25 25 25 25 25 25 22
nan nan nan nan nan nan nan nan 1 1 1 0 nan nan nan nan nan nan nan nan nan nan nan nan nan nan nan nan nan nan nan nan nan nan nan nan nan nan nan nan nan nan nan nan nan nan nan nan nan nan nan nan nan nan nan nan nan nan 0 0 0 1 2 2 2 3 4 7 8 8 9 12 15 15 17 18 20 20 23 21 21 24 24 23 23 23
nan nan nan nan nan nan nan 1 3 3 1 0 0 0 0 nan nan nan nan nan nan nan nan nan nan nan nan nan nan nan nan nan nan nan nan nan nan nan nan nan nan nan nan nan nan nan nan nan nan nan nan nan nan nan nan nan nan nan 0 1 1 2 4 5 5 6 6 7 7 7 9 11 14 14 16 16 19 19 22 23 23 22 24 22 22 21
nan nan nan nan nan nan 1 1 3 3 5 4 2 2 5 3 1 1 0 0 0 0 nan nan nan nan nan nan nan nan nan nan nan nan nan nan nan nan nan nan nan nan nan nan nan nan nan nan nan nan nan nan nan nan nan nan nan 0 1 3 3 4 6 8 8 9 10 9 12 12 13 15 16 16 16 17 20 20 22 22 22 20 20 20 20 19
nan nan nan nan nan 1 nan 0 4 4 6 7 8 8 10 13 9 9 8 5 5 3 1 nan nan nan nan nan nan nan nan nan nan nan nan nan nan nan nan nan nan nan nan nan nan nan nan nan nan nan nan nan nan nan nan nan nan 0 2 3 3 4 4 5 5 6 8 10 12 12 12 15 15 15 17 18 19 19 19 17 17 18 18 17 17 15
nan nan nan nan nan 0 4 13 15 15 3 5 7 7 10 12 9 9 8 5 5 2 0 nan nan nan nan nan nan nan nan nan nan nan nan nan nan nan nan nan nan nan nan nan nan nan nan nan nan nan nan nan nan nan nan nan nan 0 1 1 1 1 1 1 1 3 5 5 6 6 8 10 11 11 13 14 14 14 13 14 14 14 15 14 14 13
4 3 3 3 3 6 11 11 10 10 9 13 14 14 17 14 9 9 5 0 0 nan nan nan nan nan nan nan nan nan nan nan nan nan nan nan nan nan nan nan nan nan nan nan nan nan nan nan nan nan nan nan nan nan nan nan nan nan nan nan nan nan nan 0 0 0 1 3 5 5 5 5 6 6 8 9 11 11 12 13 13 13 12 12 12 11
8 9 9 9 9 6 4 3 3 3 5 8 12 12 12 10 6 6 1 nan nan nan nan nan nan nan nan nan nan nan nan nan nan nan nan nan nan nan nan nan nan nan nan nan nan nan nan nan nan nan nan nan nan nan nan nan nan nan nan nan nan nan nan nan nan nan nan 0 2 2 2 4 5 5 6 7 8 8 9 10 10 9 9 8 8 5
3 2 1 0 0 nan nan nan nan nan nan 0 1 1 4 1 1 1 nan nan nan nan nan nan nan nan nan nan nan nan nan nan nan nan nan nan nan nan nan nan nan nan nan nan nan nan nan nan nan nan nan nan nan nan nan nan nan nan nan nan nan nan nan nan nan nan nan nan 0 0 1 2 3 3 4 6 7 7 7 8 8 8 6 3 3 1
1 nan nan nan nan nan nan nan nan nan nan nan nan nan nan nan nan nan nan nan nan nan nan nan nan nan nan nan nan nan nan nan nan nan nan nan nan nan nan nan nan nan nan nan nan nan nan nan nan nan nan nan nan nan nan nan nan nan nan nan nan nan nan nan nan nan nan nan nan nan nan 0 1 1 2 3 5 5 4 5 5 5 2 0 0 0
4 4 2 nan nan nan nan nan nan nan nan nan nan nan nan nan nan nan nan nan nan nan nan nan nan nan nan nan nan nan nan nan nan nan nan nan nan nan nan nan nan nan nan nan nan nan nan nan nan nan nan nan nan nan nan nan nan nan nan nan nan nan nan nan nan nan nan nan nan nan nan nan 0 0 0 0 1 1 1 2 2 2 0 nan nan 0
nan nan nan nan nan nan nan nan nan nan nan nan nan nan nan nan nan nan nan nan nan nan nan nan nan nan nan nan nan nan nan nan nan nan nan nan nan nan nan nan nan 0 0 1 1 nan nan nan nan nan nan nan nan nan nan nan nan nan nan nan nan nan nan nan nan nan nan nan nan nan nan nan nan nan nan nan nan nan 0 0 0 0 nan nan nan nan
nan nan nan nan nan nan nan nan nan nan nan nan nan nan nan nan nan nan nan nan nan nan nan nan nan nan nan nan nan nan nan nan 0 0 0 nan 0 0 0 nan nan nan 0 0 0 0 nan nan nan nan nan nan nan nan nan nan nan nan nan nan nan nan nan nan nan nan nan nan nan nan nan nan nan nan nan nan nan nan 0 0 0 1 1 nan nan nan
nan nan nan nan nan nan nan nan nan nan nan nan nan nan nan nan nan nan nan nan nan nan nan 0 0 nan nan nan nan nan nan nan 3 3 2 1 1 1 0 0 0 nan 0 nan nan nan nan nan nan nan nan nan nan nan nan nan nan nan nan nan nan nan nan nan nan nan nan nan nan nan nan nan nan nan nan nan nan nan nan 0 0 1 1 0 0 0
nan nan nan nan nan nan nan nan nan nan nan nan nan nan nan nan nan nan nan nan nan nan nan 0 0 0 nan nan nan nan nan nan nan nan nan 0 1 1 1 0 0 nan 0 0 0 0 nan nan nan nan nan nan nan nan nan nan nan nan nan nan nan nan nan nan nan nan nan nan nan nan nan nan nan nan nan nan nan nan nan 0 0 1 2 3 3 2
nan nan nan nan nan nan nan nan nan nan nan nan nan nan nan nan nan nan nan nan nan 0 1 1 1 1 1 0 nan nan nan nan nan nan nan nan 1 1 1 nan nan 0 0 0 0 0 0 0 0 0 0 nan nan nan nan nan nan nan nan nan nan nan nan nan nan nan nan nan nan nan nan nan nan nan nan nan nan nan nan 0 0 1 2 4 4 5
nan nan nan nan nan nan nan nan nan nan nan nan nan nan nan nan nan nan nan 1 1 0 1 3 3 2 3 1 1 1 nan nan nan nan nan 1 0 0 1 0 0 0 0 1 1 1 0 0 0 nan nan nan nan nan nan nan nan nan nan nan nan nan nan nan nan nan nan nan nan nan nan nan nan nan nan nan nan nan 0 1 1 1 2 3 3 5
nan nan nan nan nan nan nan nan nan nan nan nan nan nan nan nan nan nan nan 1 1 0 0 0 0 nan 2 3 3 3 1 0 1 1 1 1 0 0 1 0 0 0 1 1 1 1 1 0 0 0 nan nan nan nan nan nan nan nan nan nan nan nan nan nan nan nan nan nan nan nan nan nan nan nan nan nan nan nan nan nan nan nan 0 1 1 2
nan nan nan nan nan nan nan nan nan nan nan nan nan nan nan nan nan nan nan 0 0 nan nan 0 0 nan 1 0 1 1 1 2 0 0 1 1 2 2 1 1 1 0 1 2 2 1 1 0 0 nan nan nan nan nan nan nan nan nan nan nan nan nan nan nan nan 0 0 0 0 0 nan nan nan nan nan nan nan nan nan nan nan nan nan nan nan 0
nan nan nan nan nan nan nan nan nan nan nan nan nan nan nan nan nan nan nan nan nan nan nan 0 0 0 0 0 nan nan 1 2 4 4 2 nan 2 2 2 1 1 1 1 3 3 2 2 1 1 0 0 0 0 0 0 nan nan nan 0 0 0 nan nan nan nan nan nan nan 0 0 nan nan nan nan nan nan nan nan nan nan nan nan nan nan nan nan
nan nan nan nan nan nan nan nan nan nan nan nan nan nan nan nan nan nan nan nan nan nan nan 0 0 0 0 0 nan nan nan 1 2 2 3 nan 1 1 3 2 2 1 1 1 1 2 2 2 2 2 2 2 2 2 2 0 0 1 2 0 0 nan 0 0 0 nan nan nan 0 0 0 nan nan nan nan nan nan nan nan nan nan nan nan nan nan nan
nan nan nan nan nan nan nan nan nan nan nan nan nan nan nan nan nan nan nan nan nan nan nan nan nan nan nan nan nan nan 0 1 2 2 2 nan nan nan 2 3 3 2 2 2 2 2 2 2 2 3 2 2 2 2 1 0 0 1 1 0 0 0 0 0 0 nan 0 0 nan nan 0 nan nan nan nan nan nan nan nan nan nan nan nan nan nan nan
nan nan nan nan nan nan nan nan nan nan nan nan nan nan nan nan nan nan nan nan nan nan nan nan nan nan nan nan nan nan 0 2 1 1 2 nan nan nan 1 3 3 3 3 2 2 3 2 4 4 3 2 3 2 2 1 1 1 0 0 1 1 1 1 nan nan nan 0 0 nan nan nan nan nan nan nan nan nan nan nan nan nan nan nan nan nan nan
nan nan nan nan nan nan nan nan nan nan nan nan nan nan nan nan nan nan nan nan nan nan nan nan nan nan nan nan nan nan nan 1 1 1 1 3 nan nan 1 3 3 4 5 3 3 3 3 3 3 2 3 4 3 3 2 2 2 1 0 1 1 1 1 0 0 0 0 0 0 0 0 0 nan nan nan nan nan nan nan nan nan nan nan nan nan nan
nan nan nan nan nan nan nan nan nan nan nan nan nan nan nan nan nan nan nan nan nan nan nan nan nan nan nan nan nan nan nan nan 1 1 2 4 5 5 5 5 5 4 5 5 5 4 3 3 3 2 3 4 3 3 2 1 1 1 1 1 1 2 1 1 1 1 1 1 0 0 0 1 1 1 0 nan nan nan nan nan nan nan nan nan nan nan
nan nan nan nan nan nan nan nan nan nan nan nan nan nan nan nan nan nan nan nan nan nan nan nan nan nan nan nan nan nan nan nan nan nan 0 2 5 5 6 7 7 5 6 6 6 5 4 3 3 3 5 4 2 2 1 1 1 1 0 1 1 1 1 1 1 1 1 1 1 1 1 2 1 1 0 0 nan nan nan nan nan nan nan nan nan nan
nan nan nan nan nan nan nan nan nan nan nan nan nan nan nan nan nan nan nan nan nan nan nan nan nan nan nan nan nan nan nan nan nan nan 0 1 3 3 4 7 7 10 8 7 7 7 6 7 7 6 4 3 2 2 1 1 1 1 1 0 0 0 0 0 0 1 1 1 1 1 3 4 2 2 1 0 nan nan nan nan nan nan nan nan nan nan
nan nan nan nan nan nan nan nan nan nan nan nan nan nan nan nan nan nan nan nan nan nan 0 0 0 0 nan nan nan nan nan nan nan nan nan 1 4 4 4 5 5 6 8 9 9 8 7 9 9 9 6 3 2 2 0 0 0 1 0 0 0 1 1 0 0 0 1 2 4 4 6 4 3 3 1 1 0 0 nan nan nan nan 0 0 0 nan
nan nan nan nan nan nan nan nan nan nan nan nan nan nan nan nan 1 1 nan nan nan 0 0 0 0 nan nan nan nan nan nan nan nan nan nan 1 2 2 2 3 3 4 5 7 7 7 8 9 9 7 4 3 1 1 1 0 0 0 0 1 1 1 1 0 0 0 1 4 7 7 8 4 4 4 3 2 1 1 0 0 0 nan 0 0 0 nan
nan nan nan nan nan nan nan nan nan nan nan nan nan nan nan nan nan nan nan 0 0 0 0 nan nan nan nan nan nan nan nan nan nan nan nan 0 2 2 3 3 3 3 2 3 3 3 3 6 6 7 9 4 2 2 1 1 1 0 1 1 1 1 0 0 0 1 1 2 8 8 12 7 5 5 4 3 2 2 1 0 0 0 nan 0 0 nan
nan nan nan nan nan nan nan nan nan nan nan nan nan nan nan nan nan nan nan nan nan 0 nan nan nan nan nan nan nan nan nan nan nan nan nan 0 1 1 2 2 2 2 2 1 1 1 2 1 1 1 5 8 3 3 1 1 1 1 2 1 1 1 1 1 1 1 2 2 6 6 11 9 6 6 4 4 3 3 1 0 0 0 nan nan nan 0
CIN
-0 -0 -0 -0 -0 -0 -0 -0 -0 -0 -0 -0 -0 -0 -0 -0 -0 -0 -0 -0 -0 -0 -0 -0 -0 -0 -0 nan -0 -0 -0 -0 -0 -0 -0 -0 -0 -0 -0 -0 -0 -0 -0 -0 -0 -0 -0 -0 -0 -0 -0 -0 -0 -0 -0 -0 -0 -0 -0 -0 -0 -0 -0 -0 -0 -0 -0 -0 -0 -0 -0 -0 -0 -0 -0 -0 -0 -0 -0 -0 -0 -0 -0 -0 -0 -0
-0 -0 -0 -0 -0 -0 -0 -0 -0 -0 -0 -0 -0 -0 -0 -0 -0 -0 -0 -0 -0 -0 -0 -0 -0 -0 -0 -0 -0 -0 -0 -0 -0 -0 -0 -0 -0 -0 -0 -0 -0 -0 -0 -0 -0 -0 -0 -0 -0 -0 -0 -0 -0 -0 -0 -0 -0 -0 -0 -0 -0 -0 -0 -0 -0 -0 -0 -0 -0 -0 -0 -0 -0 -0 -0 -0 -0 -0 -0 -0 -0 -0 -0 -0 -0 -0
-0 -0 -0 -0 -0 -0 -0 -0 -0 -0 -0 -0 -0 -0 -0 -0 -0 -0 -0 -0 -0 -0 -0 -0 -0 -0 -0 -0 -0 -0 -0 -0 -0 -0 -0 -0 -0 -0 -0 -0 -0 -0 -0 -0 -0 -0 -0 -0 -0 -0 -0 -0 -0 -0 -0 -0 -0 -0 -0 -0 -0 -0 -0 -0 -0 -0 -0 -0 -0 -0 -0 -0 -0 -0 -0 -0 -0 -0 -0 -0 -0 -0 -0 -0 -0 -0
nan -0 -0 -0 -0 -0 -0 -0 -0 -0 -0 -0 -0 -0 -0 -0 -0 -0 -0 -0 -0 -0 -0 -0 -0 -0 -0 -0 -0 -0 -0 -0 -0 -0 -0 -0 -0 -0 -0 -0 -0 -0 -0 -0 -0 -0 nan nan nan -0 -0 -0 -0 -0 -0 -0 -0 -0 -0 -0 -0 -0 -0 -0 -0 -0 -0 -0 -0 -0 -0 -0 -0 -0 -0 -0 -0 -0 -0 -0 -0 -0 -0 -0 -0 -0
-0 -0 -0 -0 -0 -0 -0 -0 -0 -0 -0 -0 -0 -0 -0 -0 -0 -0 -0 -0 -0 -0 -0 nan nan -0 -0 -0 -0 -0 -0 -0 -0 -0 -0 -0 -0 -0 -0 -0 -0 -0 -0 -0 -0 nan nan nan nan nan -0 -0 -0 -0 -0 -0 -0 -0 -0 -0 -0 -0 -0 -0 -0 -0 -0 -0 -0 -0 -0 -0 -0 -0 -0 -0 -0 -0 -0 -0 -0 -0 -0 -0 -0 -0
-0 -0 -0 -0 -0 -0 -0 -0 -0 -0 -0 -0 -0 -0 -0 -0 -0 -0 -0 -0 -0 -0 -0 -0 -0 -0 -0 -0 nan nan nan -0 -0 -0 nan nan -0 -0 -0 nan nan nan nan nan nan nan nan nan nan nan nan -0 -0 -0 -0 -0 -0 -0 -0 -0 -0 -0 -0 -0 -0 -0 -0 -0 -0 -0 -0 -0 -0 -0 -0 -0 -0 -0 -0 -0 -0 -0 -0 -0 -0 -0
-0 -0 -0 -0 -0 -0 -0 -0 -0 -0 -0 -0 -0 -0 nan -0 -0 -0 -0 -0 -0 -0 -0 nan nan nan nan nan nan nan nan nan nan nan nan nan nan nan nan nan nan nan nan nan nan nan nan nan nan nan nan nan nan nan nan nan nan -0 -0 -0 -0 -0 -0 -0 -0 -0 -0 -0 -0 -0 -0 -0 -0 -0 -0 -0 -0 -0 -0 -0 -0 -0 -0 -0 -0 -0
-0 -0 -0 -0 -0 -0 -0 -0 -0 -0 -0 -0 nan nan nan -0 -0 -0 -0 nan nan nan nan nan nan nan nan nan nan nan nan nan nan nan nan nan nan nan nan nan nan nan nan nan nan nan nan nan nan nan nan nan nan nan nan nan nan nan nan nan nan nan -0 -0 -0 -0 -0 -0 -0 -0 -0 -0 -0 -0 -0 -0 -0 -0 -0 -0 -0 -0 -0 -0 -0 -0
-0 -0 -0 -0 -0 -0 -0 -0 -0 -0 nan -0 nan nan nan nan nan nan nan nan nan nan nan nan nan nan nan nan nan nan nan nan nan nan nan nan nan nan nan nan nan nan nan nan nan nan nan nan nan nan nan nan nan nan nan nan nan nan nan nan nan nan -0 -0 -0 -0 -0 -0 -0 -0 -0 -0 -0 -0 -0 -0 -0 -0 -0 -0 -0 -0 -0 -0 -0 -0
-0 -0 -0 -0 -0 -0 -0 -0 -0 -0 -0 nan nan nan nan nan nan nan nan nan nan nan nan nan nan nan nan nan nan nan nan nan nan nan nan nan nan nan nan nan nan nan nan nan nan nan nan nan nan nan nan nan nan nan nan nan nan nan nan nan nan nan -0 -0 -0 -0 -0 -0 -0 -0 -0 -0 -0 -0 -0 -0 -0 -0 -0 -0 -0 -0 -0 -0 -0 -0
-0 -0 -0 -0 -0 -0 -0 nan nan nan nan nan nan nan nan nan nan nan nan nan nan nan nan nan nan nan nan nan nan nan nan nan nan nan nan nan nan nan nan nan nan nan nan nan nan nan nan nan nan nan nan nan nan nan nan nan nan nan nan nan nan nan nan -0 -0 -0 -0 -0 -0 -0 -0 -0 -0 -0 -0 -0 -0 -0 -0 -0 -0 -0 -0 -0 -0 -0
-0 -0 nan nan nan nan nan nan nan nan nan nan nan nan nan nan nan nan nan nan nan nan nan nan nan nan nan nan nan nan nan nan nan nan nan nan nan nan nan nan nan nan nan nan nan nan nan nan nan nan nan nan nan nan nan nan nan nan nan nan nan nan nan -0 -0 -0 -0 -0 -0 -0 -0 -0 -0 -0 -0 -0 -0 -0 -0 -0 -0 -0 -0 -0 -0 -0
nan nan nan nan nan nan nan nan nan nan nan nan nan nan nan nan nan nan nan nan nan nan nan nan nan nan nan nan nan nan nan nan nan nan nan nan nan nan nan nan nan nan nan nan nan nan nan nan nan nan nan nan nan nan nan nan nan nan nan nan nan nan nan -0 -0 -0 -0 -0 -0 -0 -0 -0 -0 -0 -0 -0 -0 -0 -0 -0 -0 -0 -0 -0 -0 -0
nan nan nan nan nan nan nan nan nan nan nan nan nan nan nan nan nan nan nan nan nan nan nan nan nan nan nan nan nan nan nan nan nan nan nan nan nan nan nan nan nan nan nan nan nan nan nan nan nan nan nan nan nan nan nan nan nan nan nan nan nan nan -0 -0 -0 -0 -0 -0 -0 -0 -0 -0 -0 -0 -0 -0 -0 -0 -0 -0 -0 -0 -0 -0 -0 -0
nan nan nan nan nan nan nan nan nan nan nan nan nan nan nan nan nan nan nan nan nan nan nan nan nan nan nan nan nan nan nan nan nan nan nan nan nan nan nan nan nan nan nan nan nan nan nan nan nan nan nan nan nan nan nan nan nan nan nan -0 -0 -0 -0 -0 -0 -0 -0 -0 -0 -0 -0 -0 -0 -0 -0 -0 -0 -0 -0 -0 -0 -0 -0 -0 -0 -0
nan nan nan nan nan nan nan nan nan nan nan nan nan nan nan nan nan nan nan nan nan nan nan nan nan nan nan nan nan nan nan nan nan nan nan nan nan nan nan nan nan nan nan nan nan nan nan nan nan nan nan nan nan nan nan nan nan -0 -0 -0 -0 -0 -0 -0 -0 -0 -0 -0 -0 -0 -0 -0 -0 -0 -0 -0 -0 -0 -0 -0 -0 -0 -0 -0 -0 -0
nan nan nan nan nan nan nan nan nan nan nan nan nan nan nan nan nan nan nan nan nan nan nan nan nan nan nan nan nan nan nan nan nan nan nan nan nan nan nan nan nan nan nan nan nan nan nan nan nan nan nan nan nan nan nan -0 -0 -0 -0 -0 -0 -0 -0 -0 -0 -0 -0 -0 -0 -0 -0 -0 -0 -0 -0 -0 -0 -0 -0 -0 -0 -0 -0 -0 -0 -0
nan nan nan nan nan nan nan nan nan nan nan nan nan nan nan nan nan nan nan nan nan nan nan nan nan nan nan nan nan nan nan nan nan nan nan nan nan nan nan nan nan nan nan nan nan nan nan nan nan nan nan nan nan nan nan -0 -0 -0 -0 -0 -0 -0 -0 -0 -0 -0 -0 -0 -0 -0 -0 -0 -0 -0 -0 -0 -0 -0 -0 -0 -0 -0 -0 -0 -0 -0
nan nan nan nan nan nan nan nan nan nan nan nan nan nan nan nan nan nan nan nan nan nan nan nan nan nan nan nan nan nan nan nan nan nan nan nan nan nan nan nan nan nan nan nan nan nan nan nan nan nan nan nan nan nan nan -0 -0 -0 -0 -0 -0 -0 -0 -0 -0 -0 -0 -0 -0 -0 -0 -0 -0 -0 -0 -0 -0 -0 -0 -0 -0 -0 -0 -0 -0 -0
nan nan nan nan nan nan nan nan nan nan nan nan nan nan nan nan nan nan nan nan nan nan nan nan nan nan nan nan nan nan nan nan nan nan nan nan nan nan nan nan nan nan nan nan nan nan nan nan nan nan nan nan nan nan nan -0 -0 -0 -0 -0 -0 -0 -0 -0 -0 -0 -0 -0 -0 -0 -0 -0 -0 -0 -0 -0 -0 -0 -0 -0 -0 -0 -0 -0 -0 -0
nan nan nan nan nan nan nan nan nan nan nan nan nan nan nan nan nan nan nan nan nan nan nan nan nan nan nan nan nan nan nan nan nan nan nan nan nan nan nan nan nan nan nan nan nan nan nan nan nan nan nan nan nan nan nan nan nan -0 -0 -0 -0 -0 -0 -0 -0 -0 -0 -0 -0 -0 -0 -0 -0 -0 -0 -0 -0 -0 -0 -0 -0 -0 -0 -0 -0 -0
nan nan nan nan nan nan nan nan -0 -0 -0 -0 nan nan nan nan nan nan nan nan nan nan nan nan nan nan nan nan nan nan nan nan nan nan nan nan nan nan nan nan nan nan nan nan nan nan nan nan nan nan nan nan nan nan nan nan nan nan -0 -0 -0 -0 -0 -0 -0 -0 -0 -0 -0 -0 -0 -0 -0 -0 -0 -0 -0 -0 -0 -0 -0 -0 -0 -0 -0 -0
nan nan nan nan nan nan nan -0 -0 -0 -0 -0 -0 -0 -0 nan nan nan nan nan nan nan nan nan nan nan nan nan nan nan nan nan nan nan nan nan nan nan nan nan nan nan nan nan nan nan nan nan nan nan nan nan nan nan nan nan nan nan -0 -0 -0 -0 -0 -0 -0 -0 -0 -0 -0 -0 -0 -0 -0 -0 -0 -0 -0 -0 -0 -0 -0 -0 -0 -0 -0 -0
nan nan nan nan nan nan -0 -0 -0 -0 -0 -0 -0 -0 -0 -0 -0 -0 -0 -0 -0 -0 nan nan nan nan nan nan nan nan nan nan nan nan nan nan nan nan nan nan nan nan nan nan nan nan nan nan nan nan nan nan nan nan nan nan nan -0 -0 -0 -0 -0 -0 -0 -0 -0 -0 -0 -0 -0 -0 -0 -0 -0 -0 -0 -0 -0 -0 -0 -0 -0 -0 -0 -0 -0
nan nan nan nan nan -0 nan -0 -0 -0 -0 -1 -0 -0 -0 -0 -0 -0 -0 -0 -0 -0 -0 nan nan nan nan nan nan nan nan nan nan nan nan nan nan nan nan nan nan nan nan nan nan nan nan nan nan nan nan nan nan nan nan nan nan -0 -0 -0 -0 -0 -0 -0 -0 -0 -0 -0 -0 -0 -0 -0 -0 -0 -0 -0 -0 -0 -0 -0 -0 -0 -0 -0 -0 -0
nan nan nan nan nan -0 -0 -0 -0 -0 -4 -1 -0 -0 -0 -0 -0 -0 -0 -0 -0 -0 -0 nan nan nan nan nan nan nan nan nan nan nan nan nan nan nan nan nan nan nan nan nan nan nan nan nan nan nan nan nan nan nan nan nan nan -0 -0 -0 -0 -0 -0 -0 -0 -0 -0 -0 -0 -0 -0 -0 -0 -0 -0 -0 -0 -0 -0 -0 -0 -0 -0 -0 -0 -0
-0 -0 -0 -0 -0 -0 -0 -0 -0 -0 -0 -0 -0 -0 -0 -0 -0 -0 -0 -0 -0 nan nan nan nan nan nan nan nan nan nan nan nan nan nan nan nan nan nan nan nan nan nan nan nan nan nan nan nan nan nan nan nan nan nan nan nan nan nan nan nan nan nan -0 -0 -0 -0 -0 -0 -0 -0 -0 -0 -0 -0 -0 -0 -0 -0 -0 -0 -0 -0 -0 -0 -0
-0 -0 -0 -0 -0 -0 -0 -0 -0 -0 -0 -0 -0 -0 -0 -0 -0 -0 -0 nan nan nan nan nan nan nan nan nan nan nan nan nan nan nan nan nan nan nan nan nan nan nan nan nan nan nan nan nan nan nan nan nan nan nan nan nan nan nan nan nan nan nan nan nan nan nan nan -0 -0 -0 -0 -0 -0 -0 -0 -0 -0 -0 -0 -0 -0 -0 -0 -0 -0 -0
-5 -4 -6 -6 -6 nan nan nan nan nan nan -0 -0 -0 -0 -0 -0 -0 nan nan nan nan nan nan nan nan nan nan nan nan nan nan nan nan nan nan nan nan nan nan nan nan nan nan nan nan nan nan nan nan nan nan nan nan nan nan nan nan nan nan nan nan nan nan nan nan nan nan -0 -0 -0 -0 -0 -0 -0 -0 -0 -0 -0 -0 -0 -0 -0 -0 -0 -0
-2 nan nan nan nan nan nan nan nan nan nan nan nan nan nan nan nan nan nan nan nan nan nan nan nan nan nan nan nan nan nan nan nan nan nan nan nan nan nan nan nan nan nan nan nan nan nan nan nan nan nan nan nan nan nan nan nan nan nan nan nan nan nan nan nan nan nan nan nan nan nan -0 -0 -0 -0 -0 -0 -0 -0 -0 -0 -0 -0 -0 -0 -0
-0 -0 -0 nan nan nan nan nan nan nan nan nan nan nan nan nan nan nan nan nan nan nan nan nan nan nan nan nan nan nan nan nan nan nan nan nan nan nan nan nan nan nan nan nan nan nan nan nan nan nan nan nan nan nan nan nan nan nan nan nan nan nan nan nan nan nan nan nan nan nan nan nan -0 -0 -0 -0 -0 -0 -0 -0 -0 -0 -0 nan nan -0
nan nan nan nan nan nan nan nan nan nan nan nan nan nan nan nan nan nan nan nan nan nan nan nan nan nan nan nan nan nan nan nan nan nan nan nan nan nan nan nan nan -0 -0 -0 -0 nan nan nan nan nan nan nan nan nan nan nan nan nan nan nan nan nan nan nan nan nan nan nan nan nan nan nan nan nan nan nan nan nan -0 -0 -0 -0 nan nan nan nan
nan nan nan nan nan nan nan nan nan nan nan nan nan nan nan nan nan nan nan nan nan nan nan nan nan nan nan nan nan nan nan nan -0 -0 -0 nan -0 -0 -0 nan nan nan -0 -0 -0 -0 nan nan nan nan nan nan nan nan nan nan nan nan nan nan nan nan nan nan nan nan nan nan nan nan nan nan nan nan nan nan nan nan -0 -0 -0 -0 -0 nan nan nan
nan nan nan nan nan nan nan nan nan nan nan nan nan nan nan nan nan nan nan nan nan nan nan -0 -0 nan nan nan nan nan nan nan -0 -0 -0 -0 -0 -0 -0 -0 -0 nan -0 nan nan nan nan nan nan nan nan nan nan nan nan nan nan nan nan nan nan nan nan nan nan nan nan nan nan nan nan nan nan nan nan nan nan nan nan -0 -0 -0 -0 -0 -0 -0
nan nan nan nan nan nan nan nan nan nan nan nan nan nan nan nan nan nan nan nan nan nan nan -0 -0 -0 nan nan nan nan nan nan nan nan nan -0 -0 -0 -0 -0 -0 nan -0 -0 -0 -0 nan nan nan nan nan nan nan nan nan nan nan nan nan nan nan nan nan nan nan nan nan nan nan nan nan nan nan nan nan nan nan nan nan -0 -0 -0 -0 -0 -0 -0
nan nan nan nan nan nan nan nan nan nan nan nan nan nan nan nan nan nan nan nan nan -0 -0 -0 -0 -0 -0 -0 nan nan nan nan nan nan nan nan -0 -0 -0 nan nan -0 -0 -0 -0 -0 -0 -0 -0 -0 -0 nan nan nan nan nan nan nan nan nan nan nan nan nan nan nan nan nan nan nan nan nan nan nan nan nan nan nan nan -0 -0 -0 -0 -0 -0 -0
nan nan nan nan nan nan nan nan nan nan nan nan nan nan nan nan nan nan nan -0 -0 -0 -0 -0 -0 -0 -0 -0 -0 -0 nan nan nan nan nan -0 -0 -0 -0 -0 -0 -0 -0 -0 -0 -0 -0 -0 -0 nan nan nan nan nan nan nan nan nan nan nan nan nan nan nan nan nan nan nan nan nan nan nan nan nan nan nan nan nan -0 -0 -0 -0 -0 -0 -0 -0
nan nan nan nan nan nan nan nan nan nan nan nan nan nan nan nan nan nan nan -0 -0 -0 -0 -0 -0 nan -0 -0 -0 -0 -0 -0 -0 -0 -0 -0 -0 -0 -0 -0 -0 -0 -0 -0 -0 -0 -0 -0 -0 -0 nan nan nan nan nan nan nan nan nan nan nan nan nan nan nan nan nan nan nan nan nan nan nan nan nan nan nan nan nan nan nan nan -0 -0 -0 -0
nan nan nan nan nan nan nan nan nan nan nan nan nan nan nan nan nan nan nan -0 -0 nan nan -0 -0 nan -0 -1 -0 -0 -0 -0 -7 -7 -2 -0 -0 -0 -0 -0 -0 -0 -0 -0 -0 -0 -0 -0 -0 nan nan nan nan nan nan nan nan nan nan nan nan nan nan nan nan -0 -0 -0 -0 -0 nan nan nan nan nan nan nan nan nan nan nan nan nan nan nan -0
nan nan nan nan nan nan nan nan nan nan nan nan nan nan nan nan nan nan nan nan nan nan nan -0 -0 -0 -0 -0 nan nan -0 -3 -0 -0 -0 nan -0 -0 -0 -0 -0 -0 -0 -0 -0 -0 -0 -0 -0 -0 -0 -0 -0 -0 -0 nan nan nan -0 -0 -0 nan nan nan nan nan nan nan -0 -0 nan nan nan nan nan nan nan nan nan nan nan nan nan nan nan nan
nan nan nan nan nan nan nan nan nan nan nan nan nan nan nan nan nan nan nan nan nan nan nan -0 -0 -0 -0 -0 nan nan nan -0 -0 -0 -0 nan -0 -0 -0 -0 -0 -0 -0 -0 -0 -0 -0 -0 -0 -0 -0 -0 -0 -0 -0 -0 -0 -0 -0 -0 -0 nan -0 -0 -0 nan nan nan -0 -0 -0 nan nan nan nan nan nan nan nan nan nan nan nan nan nan nan
nan nan nan nan nan nan nan nan nan nan nan nan nan nan nan nan nan nan nan nan nan nan nan nan nan nan nan nan nan nan -0 -0 -0 -0 -0 nan nan nan -0 -0 -0 -0 -0 -0 -0 -0 -0 -0 -0 -0 -0 -0 -0 -0 -0 -0 -0 -0 -0 -0 -0 -0 -0 -0 -0 nan -0 -0 nan nan -0 nan nan nan nan nan nan nan nan nan nan nan nan nan nan nan
nan nan nan nan nan nan nan nan nan nan nan nan nan nan nan nan nan nan nan nan nan nan nan nan nan nan nan nan nan nan -0 -0 -0 -0 -0 nan nan nan -0 -0 -0 -0 -0 -0 -0 -0 -0 -0 -0 -0 -0 -0 -0 -0 -0 -0 -0 -0 -0 -0 -0 -0 -0 nan nan nan -0 -0 nan nan nan nan nan nan nan nan nan nan nan nan nan nan nan nan nan nan
nan nan nan nan nan nan nan nan nan nan nan nan nan nan nan nan nan nan nan nan nan nan nan nan nan nan nan nan nan nan nan -0 -0 -0 -0 -0 nan nan -0 -0 -0 -0 -0 -0 -0 -0 -0 -0 -0 -0 -0 -0 -0 -0 -0 -0 -0 -0 -0 -0 -0 -0 -0 -0 -0 -0 -0 -0 -0 -0 -0 -0 nan nan nan nan nan nan nan nan nan nan nan nan nan nan
nan nan nan nan nan nan nan nan nan nan nan nan nan nan nan nan nan nan nan nan nan nan nan nan nan nan nan nan nan nan nan nan -0 -0 -0 -0 -0 -0 -0 -0 -0 -0 -0 -0 -0 -0 -0 -0 -0 -0 -0 -0 -0 -0 -0 -0 -0 -0 -0 -0 -0 -0 -0 -0 -0 -0 -0 -0 -0 -0 -0 -0 -0 -0 -0 nan nan nan nan nan nan nan nan nan nan nan
nan nan nan nan nan nan nan nan nan nan nan nan nan nan nan nan nan nan nan nan nan nan nan nan nan nan nan nan nan nan nan nan nan nan -0 -0 -0 -0 -0 -0 -0 -0 -0 -0 -0 -0 -0 -0 -0 -0 -0 -0 -0 -0 -0 -0 -0 -0 -0 -0 -0 -0 -0 -0 -0 -0 -0 -0 -0 -0 -0 -0 -0 -0 -0 -0 nan nan nan nan nan nan nan nan nan nan
nan nan nan nan nan nan nan nan nan nan nan nan nan nan nan nan nan nan nan nan nan nan nan nan nan nan nan nan nan nan nan nan nan nan -0 -0 -0 -0 -0 -0 -0 -0 -0 -0 -0 -0 -0 -0 -0 -0 -0 -0 -0 -0 -0 -0 -0 -0 -0 -0 -0 -0 -0 -0 -0 -0 -0 -0 -0 -0 -0 -0 -0 -0 -0 -0 nan nan nan nan nan nan nan nan nan nan
nan nan nan nan nan nan nan nan nan nan nan nan nan nan nan nan nan nan nan nan nan nan -0 -0 -0 -0 nan nan nan nan nan nan nan nan nan -0 -0 -0 -0 -0 -0 -0 -0 -0 -0 -0 -0 -0 -0 -0 -0 -0 -0 -0 -0 -0 -0 -0 -0 -0 -0 -0 -0 -0 -0 -0 -0 -0 -0 -0 -0 -0 -0 -0 -0 -0 -0 -0 nan nan nan nan -0 -0 -0 nan
nan nan nan nan nan nan nan nan nan nan nan nan nan nan nan nan -0 -0 nan nan nan -0 -0 -0 -0 nan nan nan nan nan nan nan nan nan nan -0 -0 -0 -0 -0 -0 -0 -0 -0 -0 -0 -0 -0 -0 -0 -0 -0 -0 -0 -0 -0 -0 -0 -0 -0 -0 -0 -0 -0 -0 -0 -0 -0 -4 -4 -0 -0 -0 -0 -0 -0 -0 -0 -0 -0 -0 nan -0 -0 -0 nan
nan nan nan nan nan nan nan nan nan nan nan nan nan nan nan nan nan nan nan -0 -0 -0 -0 nan nan nan nan nan nan nan nan nan nan nan nan -0 -0 -0 -0 -0 -0 -0 -0 -0 -0 -0 -0 -0 -0 -0 -0 -0 -0 -0 -0 -0 -0 -0 -0 -0 -0 -0 -0 -0 -0 -0 -0 -0 -2 -2 -0 -0 -0 -0 -0 -0 -0 -0 -0 -0 -0 -0 nan -0 -0 nan
nan nan nan nan nan nan nan nan nan nan nan nan nan nan nan nan nan nan nan nan nan -0 nan nan nan nan nan nan nan nan nan nan nan nan nan -0 -0 -0 -0 -0 -0 -0 -0 -0 -0 -0 -0 -0 -0 -0 -0 -0 -0 -0 -0 -0 -0 -0 -0 -0 -0 -0 -0 -0 -0 -0 -0 -0 -0 -0 -0 -0 -0 -0 -0 -0 -0 -0 -0 -0 -0 -0 nan nan nan -0
Wind_Speed
1 1 1 2 1 2 2 3 3 2 2 2 2 2 2 2 3 3 4 4 4 4 3 3 3 4 4 6 7 8 7 7 7 7 7 6 6 5 5 4 3 3 3 4 4 5 5 5 4 4 4 4 4 5 5 6 7 7 8 8 9 9 9 9 9 9 9 9 8 8 7 6 6 5 5 5 5 6 6 7 7 8 8 8 9 9
2 1 1 2 2 1 2 3 3 2 2 2 2 2 2 2 2 2 3 3 3 3 3 3 3 4 4 4 6 7 7 6 6 6 6 6 6 6 5 4 4 4 4 4 4 4 4 3 3 3 3 4 4 5 6 7 7 8 8 9 9 10 10 10 10 9 9 8 8 7 6 5 5 5 5 5 5 6 7 7 8 8 8 9 9 10
2 2 1 1 1 2 2 2 3 3 2 2 2 2 2 2 2 2 2 3 3 3 3 3 3 3 4 3 4 6 6 5 5 6 6 6 6 5 5 4 4 4 4 3 3 3 3 3 3 3 4 5 5 6 7 7 8 8 9 9 9 10 10 10 10 9 9 8 8 7 6 5 5 5 5 6 6 7 7 8 8 9 9 9 9 10
2 1 1 1 1 2 2 2 2 2 2 2 2 2 2 2 2 2 2 3 3 3 3 3 3 3 2 2 3 5 5 5 5 5 6 6 5 5 4 4 3 3 3 3 3 2 2 3 4 4 5 6 6 7 7 8 8 9 9 9 9 9 9 9 9 9 8 8 7 7 6 6 5 6 6 6 7 8 8 8 9 9 9 9 10 10
2 1 1 1 1 1 2 2 2 2 1 2 2 2 2 2 2 2 2 2 2 2 2 2 2 2 1 2 3 4 5 5 5 5 6 5 5 4 4 3 3 3 2 2 3 3 3 4 4 5 6 6 7 8 8 9 9 9 9 10 10 9 9 9 8 8 7 7 6 6 6 6 6 6 6 7 7 8 8 9 9 9 10 10 10 10
2 1 1 1 1 1 1 1 1 1 1 1 2 2 2 2 1 1 1 1 1 1 1 1 1 1 1 2 3 3 3 4 4 4 4 4 4 4 4 3 3 3 3 3 3 3 4 5 5 6 7 7 8 9 9 10 10 10 10 10 10 10 9 9 8 8 7 6 6 6 6 6 6 6 7 7 8 8 9 9 10 10 10 10 10 10
2 1 1 1 1 1 1 1 1 1 1 1 1 1 1 1 1 1 1 1 0 0 0 0 1 1 1 2 2 2 2 2 2 2 2 2 2 3 3 3 3 3 3 3 4 4 5 5 6 7 8 9 9 10 10 10 11 11 11 11 11 10 10 9 9 8 7 7 6 6 6 6 6 7 7 7 8 9 9 10 10 10 11 11 11 11
2 1 1 2 2 2 1 1 1 1 1 1 1 1 1 1 1 1 1 1 1 1 1 1 1 1 1 2 2 2 2 1 1 0 0 0 0 0 1 2 2 3 3 4 4 5 6 6 7 8 9 9 10 10 11 11 11 11 11 11 11 11 10 10 10 9 9 8 8 7 7 7 7 7 8 8 9 9 10 10 11 11 11 11 11 11
2 2 1 1 1 1 1 2 1 1 1 1 1 1 1 1 1 1 2 2 2 2 2 2 1 1 2 2 2 2 2 3 3 2 2 1 0 0 1 1 2 2 4 4 5 5 6 7 8 8 9 9 10 10 11 11 11 11 11 11 11 11 11 11 10 10 10 9 9 8 8 8 8 8 9 9 9 10 10 10 11 11 11 11 11 11
2 2 1 1 1 1 1 1 2 1 1 1 1 1 2 2 1 0 1 2 2 2 1 2 2 2 2 2 2 2 2 2 2 3 3 3 3 3 3 2 2 3 4 4 5 6 6 7 8 8 9 9 10 10 10 10 11 11 11 11 11 11 11 11 11 11 11 10 10 10 10 9 9 10 10 10 10 11 11 11 11 11 11 11 11 11
1 1 1 1 1 1 1 1 1 1 0 0 1 1 2 2 2 2 1 1 1 2 1 2 2 2 2 2 2 2 2 1 1 0 1 2 2 3 3 3 3 3 4 5 5 6 6 7 8 8 9 9 10 10 10 10 10 10 11 11 11 11 12 12 12 12 12 11 11 11 11 11 11 11 11 11 11 11 11 11 11 11 11 11 11 11
1 1 1 1 1 1 1 1 1 1 0 1 1 1 2 2 2 2 2 2 2 2 2 1 1 1 1 2 2 2 2 2 2 1 1 1 1 1 2 2 3 3 4 5 5 6 7 7 8 8 9 9 9 9 9 9 9 10 10 11 11 11 11 12 12 12 12 12 12 12 12 12 12 12 12 12 12 12 12 11 11 11 11 11 11 11
1 1 1 1 1 1 1 1 1 1 1 1 1 2 2 2 2 2 2 2 2 2 2 2 1 0 1 1 1 2 2 2 2 2 2 2 1 1 2 2 3 3 4 4 5 5 6 7 8 8 8 8 8 8 8 8 9 9 10 10 11 11 11 12 12 12 12 12 12 12 13 13 12 12 12 12 12 12 12 11 11 11 11 11 11 11
2 1 1 1 1 1 1 1 1 1 2 2 2 2 2 2 1 1 2 1 1 1 2 3 2 1 2 1 1 1 2 2 2 2 3 2 2 1 2 3 3 4 4 4 5 5 6 6 6 6 7 7 7 7 7 7 8 9 9 10 10 10 11 11 11 11 12 12 12 12 12 12 12 12 12 12 12 12 11 11 11 10 10 10 10 10
1 1 1 1 1 1 1 1 1 2 2 2 2 1 1 1 1 1 2 2 2 2 2 3 3 2 1 2 1 1 2 2 2 3 3 3 2 2 2 3 3 4 4 5 5 5 5 5 5 5 5 5 5 6 6 7 8 8 9 9 9 10 10 10 10 11 11 11 11 11 12 12 12 12 12 12 12 11 11 11 10 10 10 10 10 10
1 1 1 1 2 2 1 1 1 2 2 2 1 1 1 1 1 2 2 3 2 2 3 3 3 2 1 2 2 1 2 2 3 3 4 4 3 2 2 3 4 4 4 4 5 4 4 4 4 4 4 4 5 6 7 7 8 8 9 9 9 9 10 10 10 10 10 11 11 11 11 11 11 11 11 11 11 11 11 10 10 10 10 10 10 10
1 1 1 1 1 2 2 1 1 1 1 1 1 1 2 2 2 2 2 2 2 2 2 2 2 2 1 1 2 2 2 2 3 3 4 4 3 2 1 2 3 4 4 4 4 4 4 4 3 3 3 4 6 7 8 8 8 9 9 9 9 10 10 10 10 10 11 11 11 11 11 11 11 11 11 11 11 11 11 10 10 10 11 11 11 11
1 1 1 1 1 1 2 1 1 1 1 1 1 1 1 1 1 2 2 2 2 2 2 2 2 2 3 2 1 2 2 2 3 4 4 4 4 2 1 2 3 4 4 4 4 4 3 3 3 4 4 6 7 8 9 9 9 10 10 10 10 10 11 11 11 11 11 11 11 11 11 11 11 11 11 11 11 11 11 11 11 11 11 11 11 11
1 1 1 1 1 1 1 1 1 1 0 0 0 0 0 0 0 1 1 2 2 2 2 2 2 2 2 3 2 2 2 2 3 4 4 4 3 2 1 2 3 4 4 4 4 4 3 3 4 5 6 7 8 9 10 10 10 10 11 11 11 11 11 11 12 12 12 12 12 12 12 12 12 12 11 11 11 11 11 11 11 11 11 11 11 11
1 1 1 0 0 1 1 1 1 1 1 1 1 1 1 1 1 1 1 1 2 2 2 3 3 3 2 3 2 2 2 2 3 3 4 4 4 3 2 2 3 4 4 4 4 3 3 4 4 5 6 7 8 9 10 10 11 11 11 11 11 11 12 12 12 12 12 13 13 13 13 13 12 12 12 12 12 12 12 12 12 12 12 12 11 11
0 1 1 0 0 1 1 1 1 2 2 1 1 1 1 1 2 2 1 1 2 2 2 2 3 3 2 3 3 3 2 3 3 3 3 3 3 2 1 2 3 4 4 4 4 3 3 4 4 4 5 7 8 9 10 10 10 11 11 11 11 11 11 12 12 12 13 13 13 13 13 13 13 13 13 13 12 12 12 12 12 12 12 11 11 11
1 0 1 0 0 1 0 1 2 2 2 1 1 2 1 2 2 2 2 2 2 2 3 3 3 3 4 4 4 4 3 3 3 3 3 3 3 3 1 1 2 3 4 4 3 3 3 4 4 5 6 7 8 9 9 10 10 10 10 10 10 10 10 11 11 12 12 13 13 13 13 13 13 13 13 13 13 13 13 12 12 12 11 11 11 11
1 1 1 1 1 1 1 1 2 2 1 0 1 2 2 2 3 3 3 3 3 3 4 4 4 4 5 5 5 4 3 2 2 2 3 3 3 2 1 1 2 3 3 3 3 4 4 4 4 5 6 7 7 7 8 8 8 8 8 8 8 9 9 9 10 10 11 11 12 12 13 13 13 13 13 13 13 13 12 12 11 11 10 10 11 11
1 1 1 1 1 1 1 1 1 1 0 1 1 1 1 2 3 3 3 3 4 4 4 4 5 5 5 5 5 4 3 2 2 2 2 3 3 3 2 2 2 3 3 4 4 4 5 5 5 5 5 5 5 5 6 6 7 7 7 7 7 7 8 8 9 9 9 9 10 10 10 11 11 11 11 11 11 11 10 10 10 9 10 10 11 11
1 1 0 0 0 0 1 1 0 0 1 0 0 1 1 2 3 3 4 4 4 4 4 4 5 5 4 4 3 2 2 3 2 2 2 3 3 3 2 2 2 3 3 4 4 4 5 5 5 4 4 3 3 3 4 5 5 6 6 6 7 7 8 8 8 9 9 9 9 9 9 8 9 9 9 9 9 9 8 9 9 9 10 11 11 12
1 1 1 1 1 1 2 2 1 1 1 1 2 2 2 2 3 3 4 4 4 4 4 4 4 4 3 3 2 1 2 2 2 2 2 2 3 3 2 2 2 3 4 4 4 5 5 5 5 4 3 2 2 2 3 4 5 6 6 6 7 7 8 8 8 8 9 9 9 8 8 8 8 8 8 8 8 8 8 9 9 10 11 11 12 12
1 1 1 1 1 0 1 2 3 4 4 4 4 4 4 4 4 4 4 4 3 3 4 4 4 4 3 3 2 2 1 2 2 2 2 2 3 3 2 2 2 3 4 4 4 5 5 5 4 4 3 2 2 2 3 4 5 6 6 7 7 7 8 8 8 8 8 8 8 8 8 8 8 8 8 8 8 8 9 9 10 10 11 11 11 11
2 2 2 2 1 1 2 3 4 5 6 7 8 8 7 5 5 5 5 4 3 3 4 4 4 4 3 2 2 2 2 2 2 1 1 2 2 2 2 2 2 3 4 4 4 5 5 5 4 3 2 2 2 2 3 4 5 6 7 7 7 7 7 7 7 7 8 8 8 8 8 9 9 9 9 9 9 9 9 10 10 10 10 9 8 7
3 2 2 1 1 1 2 3 5 6 7 8 9 8 7 6 5 5 5 4 4 4 4 4 4 4 3 3 2 2 3 2 1 1 1 2 2 2 2 2 2 2 3 3 4 4 4 3 2 2 2 2 2 3 3 4 5 6 7 7 7 7 6 6 6 7 7 7 8 8 9 9 9 9 9 9 9 10 10 10 10 9 8 8 7 7
2 2 2 2 2 2 3 4 5 6 7 8 9 8 7 6 5 5 5 4 4 4 4 4 4 4 3 3 3 2 2 1 1 2 1 2 2 2 2 2 2 2 2 3 3 3 2 1 1 1 1 2 3 3 3 4 4 5 5 6 6 6 5 5 6 6 7 7 8 8 9 9 9 10 10 10 10 10 10 10 10 8 7 7 6 6
3 3 3 3 3 3 3 4 4 5 6 7 7 7 6 5 5 4 4 4 4 4 4 4 4 4 3 2 2 2 1 1 2 2 1 1 2 2 2 2 2 2 2 2 2 3 2 1 0 1 1 3 3 3 4 4 4 4 4 4 4 4 5 5 6 6 7 7 8 8 9 9 9 10 10 10 10 11 11 11 10 8 7 6 6 6
3 3 4 4 4 3 3 3 4 4 4 5 5 5 4 4 4 3 3 3 4 4 4 4 4 4 3 3 3 2 1 1 2 2 1 1 2 2 2 2 2 2 2 2 2 3 3 2 2 2 2 3 3 3 4 4 4 4 4 4 4 4 4 5 6 6 6 7 7 8 8 9 9 10 10 10 11 11 11 11 10 9 7 7 7 7
4 4 4 4 4 4 4 4 4 4 4 4 3 3 3 3 3 3 3 3 3 4 4 4 4 4 4 4 3 3 2 0 2 2 1 1 2 2 2 2 3 3 3 3 3 3 3 3 3 3 3 3 3 3 4 4 4 3 4 4 4 4 5 5 5 6 6 6 6 7 8 8 9 9 10 10 10 10 11 11 11 10 8 7 6 6
5 5 5 5 5 4 4 4 4 4 3 3 3 3 3 3 3 3 3 3 3 3 3 3 4 4 4 3 3 3 3 1 1 2 1 1 2 2 2 2 3 3 3 3 3 3 3 4 4 4 3 3 3 3 4 4 3 3 3 4 4 4 5 5 5 5 5 5 5 5 6 6 7 8 8 9 9 9 10 10 10 10 10 8 7 6
5 5 5 5 5 4 4 4 4 4 3 3 3 3 3 3 3 3 2 2 2 3 3 3 3 3 3 3 3 3 3 1 1 1 1 1 2 2 2 3 3 3 3 3 3 3 3 4 4 5 4 4 4 3 3 3 3 3 3 3 4 4 5 5 5 5 5 5 5 4 4 4 4 5 6 6 7 8 9 9 10 11 11 10 9 8
5 5 5 5 4 4 4 4 4 3 3 3 2 2 2 3 3 2 2 2 2 2 3 3 3 3 3 3 3 3 3 2 2 2 2 2 2 2 3 3 3 3 3 4 4 3 3 4 5 5 5 5 4 3 3 2 2 3 3 4 4 4 5 5 5 5 5 5 4 4 4 4 4 4 4 6 7 7 8 9 10 11 11 12 12 11
5 5 5 4 4 3 3 3 3 3 3 2 2 2 3 3 3 3 3 2 2 2 3 3 3 4 4 4 4 4 4 4 4 4 4 4 3 3 3 3 4 4 4 4 4 4 4 4 5 5 5 5 4 3 3 3 3 3 4 4 4 5 5 5 5 5 5 5 5 4 4 4 4 4 4 5 6 7 8 9 10 10 11 12 12 13
5 5 4 3 3 3 3 3 3 2 2 2 2 2 3 3 3 3 3 3 3 3 3 3 4 5 6 6 6 6 6 6 6 6 6 5 4 4 4 4 4 4 4 4 4 4 4 4 5 5 4 4 4 4 4 4 4 4 4 4 5 5 5 5 5 5 5 5 5 5 5 5 4 4 4 5 5 5 6 6 7 8 9 10 11 13
4 4 4 3 3 3 3 3 2 2 2 2 2 2 3 3 4 4 4 3 3 4 4 4 4 5 5 6 7 8 8 8 7 6 5 5 5 5 5 5 5 5 5 4 4 4 4 4 5 5 4 4 5 5 4 4 4 5 5 5 5 5 5 5 5 5 5 5 5 5 5 5 4 4 4 4 4 4 4 5 5 5 6 6 7 9
4 4 4 3 3 3 2 2 2 2 2 2 3 3 3 3 4 4 4 4 4 4 5 5 5 5 5 6 7 8 9 7 7 6 6 5 5 5 5 5 5 5 4 4 4 5 5 5 5 6 5 5 5 5 4 4 5 5 6 5 4 4 4 4 5 5 5 5 5 5 5 4 4 4 4 4 4 4 4 4 4 4 5 4 5 5
4 4 3 3 2 2 3 3 3 3 3 3 3 3 3 3 3 3 4 4 4 4 5 5 5 5 6 7 7 8 8 8 8 7 6 6 6 6 5 5 5 5 4 5 5 5 5 6 6 6 6 6 6 6 6 5 6 6 7 5 5 5 5 5 6 6 6 6 5 5 5 5 5 5 5 5 5 5 5 5 5 5 5 5 4 4
5 4 3 3 2 2 2 3 3 3 4 4 4 4 4 3 3 3 3 3 3 3 3 4 4 5 5 5 6 6 7 7 7 7 7 6 6 6 6 5 5 5 5 5 5 5 5 6 6 6 6 6 5 5 6 6 6 6 6 6 6 6 6 6 5 5 5 5 5 5 5 5 5 5 5 5 5 5 5 5 6 6 6 5 5 5
4 4 3 3 3 3 3 3 3 4 4 4 4 4 4 3 3 3 3 3 3 3 3 3 3 4 4 4 4 4 5 5 6 6 7 7 7 7 7 6 6 5 5 5 5 5 5 6 6 6 6 6 6 6 7 6 6 6 6 6 6 5 4 3 4 4 4 4 5 5 5 5 5 5 5 5 5 5 5 6 7 7 7 6 6 6
4 4 3 3 3 4 4 4 4 4 4 4 4 4 4 4 4 3 3 3 3 3 3 3 3 4 4 4 4 4 3 4 5 6 6 7 7 7 7 7 7 7 6 5 5 4 5 5 6 6 5 5 6 6 7 6 6 6 6 6 6 6 5 4 4 5 5 5 5 5 5 5 5 5 5 5 5 5 5 6 6 6 7 7 7 6
4 4 4 4 4 4 4 4 4 4 4 4 4 4 4 4 4 3 3 3 3 3 3 3 3 3 3 4 3 3 3 3 3 4 5 6 8 9 8 8 7 7 7 6 6 5 5 5 5 5 5 5 6 7 7 7 7 7 6 6 7 7 7 6 6 6 5 5 5 6 6 6 5 5 5 5 5 5 6 6 6 6 6 6 7 7
4 4 4 4 4 4 5 5 4 4 4 4 4 4 4 4 3 3 3 3 3 3 3 3 3 3 3 3 3 3 2 3 3 3 3 5 6 7 8 7 7 6 6 6 6 6 6 5 5 5 5 5 6 7 7 7 7 7 6 6 6 6 6 6 6 6 6 6 6 6 6 5 5 5 5 6 6 6 6 6 6 7 7 6 7 7
4 4 4 4 4 4 4 4 4 4 4 4 4 4 4 3 3 3 3 4 4 3 4 4 4 4 4 4 3 3 3 3 3 3 3 3 4 5 5 6 6 6 6 6 6 7 7 7 6 6 6 6 6 7 7 7 7 7 7 6 6 6 6 6 6 6 6 6 6 5 5 5 5 5 6 6 6 6 6 6 6 7 7 7 7 7
4 4 4 4 4 4 4 4 4 4 4 4 4 4 3 3 4 4 3 4 4 4 4 4 4 5 5 5 4 4 4 3 3 3 3 3 3 3 3 4 4 5 6 6 7 7 7 8 8 8 7 7 7 7 7 7 7 6 6 6 6 6 6 6 6 6 6 6 6 5 5 5 5 5 6 6 6 6 6 6 6 6 6 7 7 7
4 4 4 4 4 4 4 4 4 4 4 4 4 4 3 4 4 5 4 4 4 4 4 4 5 5 5 5 4 4 4 4 3 3 4 3 3 2 3 3 3 4 4 5 6 6 7 8 9 9 9 8 8 7 7 7 7 6 6 6 6 6 6 6 6 6 6 6 6 6 5 5 5 5 6 6 7 7 7 7 7 7 7 7 7 7
4 4 4 4 4 4 4 4 4 4 4 4 4 4 4 4 4 4 4 4 4 4 4 5 5 5 5 5 4 4 4 4 4 4 4 3 3 2 3 3 3 3 3 4 4 4 5 6 7 9 11 12 11 9 8 7 7 6 6 6 6 6 6 6 6 6 6 6 6 6 6 6 6 5 5 6 7 8 8 7 7 7 6 6 7 7
5 4 4 4 4 4 4 4 4 4 4 5 4 4 4 4 4 4 4 4 5 5 5 5 5 5 5 5 4 4 4 4 4 4 4 3 3 3 3 3 3 3 3 3 3 3 3 3 4 5 8 12 14 13 9 7 7 6 6 6 6 5 6 6 6 6 6 6 6 5 6 6 6 5 5 6 7 7 8 7 7 7 6 6 6 7
Wind_Direction
84 70 45 27 38 54 48 37 40 46 53 51 48 45 43 43 38 31 25 21 17 14 19 13 4 1 9 22 21 16 12 11 9 6 3 4 7 11 18 19 13 1 349 341 338 336 334 331 328 326 324 318 314 310 306 304 304 305 305 305 303 301 298 296 293 291 289 288 289 290 294 300 304 307 307 304 300 296 295 293 293 293 293 293 292 290
109 98 69 38 43 58 61 43 40 41 42 43 40 37 33 40 36 27 16 12 5 358 357 358 354 353 355 19 22 18 14 9 7 6 6 9 14 17 20 16 7 355 344 337 335 333 332 326 325 325 322 317 314 311 308 307 307 306 305 304 302 301 299 297 295 294 293 292 292 293 294 297 297 297 296 294 292 292 293 294 296 299 300 301 301 300
119 106 84 49 43 50 54 42 39 37 34 36 33 26 18 23 24 16 2 352 348 350 355 354 352 350 349 13 26 25 20 13 10 10 11 15 18 20 18 12 3 352 344 339 338 339 341 340 338 336 332 328 324 320 317 314 312 309 307 304 302 300 299 297 296 296 296 296 297 297 298 298 298 297 296 296 296 297 297 299 301 302 303 303 303 301
100 93 89 73 56 52 48 35 35 36 36 37 34 27 20 21 20 14 2 351 348 352 359 353 350 348 343 8 33 36 25 16 12 11 12 15 16 15 12 6 1 357 352 351 352 355 359 354 348 342 337 332 328 325 321 318 315 312 309 306 304 302 300 299 298 298 298 298 299 300 302 301 300 300 299 300 300 300 300 301 301 301 300 300 298 297
89 83 83 85 75 65 52 35 31 34 46 46 44 40 36 36 33 26 11 359 354 351 352 341 337 339 338 16 39 39 25 14 9 8 8 9 9 7 5 4 6 9 11 10 9 6 2 355 347 341 335 331 327 324 320 318 315 313 311 310 309 308 307 306 306 304 303 301 301 300 300 300 300 299 300 300 300 299 299 298 298 297 295 294 292 290
96 89 92 88 83 76 65 46 31 30 49 58 58 56 54 54 58 62 50 26 5 343 322 306 311 335 19 42 42 35 21 9 4 2 2 3 2 1 360 4 12 20 21 16 11 4 356 348 342 337 332 328 325 321 318 316 313 312 311 311 311 312 313 312 311 309 307 304 302 300 299 298 298 297 297 296 296 295 295 294 293 291 289 287 285 284
116 119 133 123 112 99 86 61 38 27 33 57 74 82 87 86 95 108 106 100 80 350 317 325 338 9 45 56 49 33 10 1 354 352 358 357 356 356 359 4 11 15 13 8 0 354 348 342 338 333 330 326 323 319 316 313 311 309 308 308 309 310 310 309 307 306 303 301 299 297 295 294 293 293 292 292 291 290 290 289 288 286 284 283 281 280
131 142 155 144 135 126 113 88 54 28 16 21 40 100 134 140 142 135 119 94 58 24 4 358 2 25 47 49 37 8 344 332 310 267 261 205 196 11 7 8 6 3 359 353 349 345 341 337 333 330 327 323 319 316 313 310 307 306 305 304 304 304 303 302 301 299 297 295 293 292 290 289 288 288 288 288 287 286 285 285 283 282 281 280 279 278
130 137 139 116 109 109 116 105 85 57 26 5 354 352 13 109 134 140 138 108 71 35 7 352 350 11 37 32 19 359 346 336 334 338 348 349 8 31 29 355 348 349 347 343 340 337 334 329 326 323 321 317 314 311 308 305 303 302 301 300 299 298 297 296 295 293 292 290 289 287 286 285 284 284 284 284 284 283 282 281 279 278 278 277 277 276
120 120 106 77 63 57 72 93 94 87 64 21 4 5 8 5 5 34 148 114 92 65 29 4 355 357 10 15 12 2 348 336 343 353 4 11 11 9 7 350 342 339 334 330 326 323 320 318 316 314 312 310 307 304 302 300 298 297 296 295 294 293 292 291 290 289 288 287 285 284 283 283 282 282 282 282 281 280 279 277 275 273 273 273 273 273
117 116 113 105 98 85 64 69 76 82 100 177 137 86 52 20 359 342 341 60 74 68 55 33 13 359 353 357 1 358 340 318 307 342 44 36 21 9 357 339 326 319 313 309 305 302 302 303 304 304 304 303 300 298 296 294 292 291 290 290 290 289 289 288 287 286 285 284 283 282 281 281 280 280 279 279 278 277 275 272 270 269 269 269 270 271
125 128 133 127 123 117 108 94 92 97 213 212 164 116 85 50 12 344 340 5 23 27 22 26 31 21 3 353 350 346 331 311 300 280 249 240 262 290 305 299 292 288 291 288 286 287 289 293 297 299 299 298 297 294 292 289 288 287 286 286 286 285 285 285 284 283 282 281 280 279 279 278 278 277 276 276 274 272 270 268 266 265 265 266 267 269
140 151 156 143 126 111 102 112 122 121 87 31 39 55 62 49 17 340 331 357 13 10 351 329 316 125 105 40 356 336 322 311 303 295 279 265 266 282 295 293 292 292 291 288 285 285 288 294 296 297 297 296 294 291 287 285 283 282 282 282 282 282 282 282 281 280 279 278 277 276 275 274 274 273 272 271 269 267 265 264 264 264 264 265 266 267
150 159 160 142 124 106 93 94 94 84 69 48 39 37 41 34 356 320 309 340 5 359 328 303 291 258 137 110 64 348 321 311 303 294 284 280 287 303 306 299 297 297 297 293 290 291 297 299 297 296 296 293 291 290 289 285 282 280 280 280 279 279 279 279 278 277 276 274 273 272 271 271 270 268 267 265 264 262 262 262 262 263 265 266 268 269
145 156 152 136 121 111 99 81 74 73 71 61 52 41 23 8 338 325 318 333 340 334 311 298 290 275 153 111 83 12 334 319 310 304 299 296 298 305 306 299 298 296 295 293 292 294 300 298 297 296 296 298 302 306 305 296 289 285 284 282 280 280 280 279 278 277 275 274 272 271 269 268 266 264 263 261 260 260 260 260 262 263 266 268 271 273
136 149 141 135 128 117 98 78 70 74 78 73 58 22 334 348 351 345 332 331 327 321 312 308 303 293 190 122 101 48 356 334 322 313 306 299 297 300 316 307 304 302 300 297 296 298 300 298 297 298 300 310 315 315 313 302 294 290 288 286 285 285 285 285 284 283 281 279 276 274 272 269 266 264 262 261 260 259 259 259 260 262 264 267 270 272
131 148 147 150 137 125 109 95 76 70 78 78 63 29 4 2 355 345 332 325 319 315 317 318 314 307 293 137 117 92 21 346 327 314 305 297 297 306 341 321 311 307 305 300 298 298 300 300 300 303 310 321 321 316 311 304 299 296 293 292 291 291 291 290 290 289 287 285 282 280 277 273 270 267 265 263 262 261 260 259 259 259 261 263 265 267
150 169 183 179 151 130 120 126 119 111 109 106 84 64 46 26 1 339 329 324 321 320 323 315 310 305 300 305 68 84 48 352 327 312 301 295 295 304 342 323 311 306 302 298 296 296 300 303 308 313 316 317 315 311 307 303 300 297 295 294 293 292 292 291 291 290 288 286 284 282 280 277 274 272 269 267 265 264 262 261 260 260 260 260 262 263
159 182 221 204 157 134 146 153 156 149 158 57 23 11 78 65 356 322 322 324 324 322 320 310 302 294 290 300 334 32 43 352 323 306 297 293 293 298 318 315 309 304 300 297 297 299 301 303 305 307 307 306 305 304 302 300 299 297 295 293 292 291 290 289 288 287 286 284 283 281 280 278 276 274 272 270 268 267 265 263 263 262 262 263 264 265
166 179 219 213 177 171 177 156 132 97 55 29 356 327 324 325 309 304 314 320 315 311 305 296 290 288 286 292 305 337 7 338 316 301 294 293 293 298 317 318 311 306 301 298 298 300 300 300 299 297 297 298 299 300 300 299 298 296 294 292 290 289 288 287 285 284 282 281 280 279 278 276 275 273 272 271 270 268 266 266 265 265 265 266 266 268
187 156 123 111 245 225 167 112 94 80 58 25 343 315 321 319 313 308 319 312 301 290 281 277 279 283 291 295 301 312 330 320 309 302 297 294 291 292 316 320 311 305 301 298 297 297 299 298 297 295 294 297 298 300 300 300 298 296 293 291 289 287 286 284 282 280 279 277 276 275 274 274 273 272 271 270 269 268 266 266 265 265 266 267 268 269
339 47 82 42 316 313 31 86 91 86 74 26 332 320 334 331 323 320 321 312 300 292 286 284 289 295 300 295 295 296 300 295 293 295 296 292 288 289 326 324 310 302 299 299 299 301 301 299 297 295 295 297 300 302 303 302 300 297 294 291 289 287 285 282 280 278 275 274 272 271 270 270 270 269 268 267 266 266 265 264 264 265 266 267 269 270
343 10 76 69 14 358 13 48 72 83 84 356 324 331 343 332 322 317 315 310 304 299 297 296 296 293 286 280 275 271 260 253 262 276 284 285 287 295 345 321 307 300 299 302 305 307 305 301 297 295 294 299 303 305 307 305 303 299 297 294 292 291 290 287 284 281 277 274 271 269 267 267 266 266 265 265 265 265 264 265 265 266 267 269 270 271
331 346 59 71 45 24 4 23 50 68 69 329 332 336 323 304 300 300 300 297 293 291 290 288 283 275 265 258 254 245 210 201 218 248 271 278 287 298 322 318 309 303 302 306 309 308 304 298 294 292 291 301 308 312 311 309 307 305 304 305 307 307 308 305 302 299 294 289 283 279 275 273 270 269 268 268 268 269 269 270 270 270 271 271 272 272
314 317 355 348 299 288 288 305 317 125 135 144 202 240 244 261 272 278 280 277 274 271 269 271 271 271 267 264 257 232 162 170 196 235 267 279 287 295 307 313 309 305 305 308 308 305 299 295 293 292 292 303 314 318 313 311 311 312 315 319 320 320 320 318 316 315 312 309 306 302 296 293 289 285 283 282 280 279 279 276 275 274 273 273 273 273
282 267 244 227 231 250 279 301 301 278 203 202 220 237 250 262 270 273 272 266 264 265 270 274 277 279 282 281 276 256 151 165 190 228 261 278 288 292 297 308 311 310 308 306 303 299 294 293 294 295 299 307 309 303 303 304 306 310 315 318 320 320 319 316 315 314 312 311 310 308 305 305 301 298 296 292 288 284 281 278 276 275 275 274 274 273
221 213 201 190 190 275 322 321 316 312 305 295 296 300 299 291 283 277 273 270 272 276 280 282 284 284 282 276 275 271 231 190 199 218 247 272 282 286 290 314 322 317 307 302 298 294 289 287 288 292 300 304 292 276 280 287 293 299 303 307 310 312 312 310 307 304 302 300 298 297 297 296 294 293 291 288 284 281 278 277 276 276 276 276 275 273
88 86 81 78 60 28 350 327 316 310 306 304 305 306 302 292 282 276 274 278 281 281 276 277 280 283 283 282 284 287 283 248 216 202 236 268 275 279 291 317 321 313 304 300 295 287 278 272 274 280 290 291 280 268 263 270 278 284 289 295 299 302 303 302 300 297 295 292 290 288 286 285 285 284 282 281 279 278 277 277 278 278 277 276 273 271
107 105 104 95 63 345 315 303 299 297 296 296 295 294 290 282 275 272 274 279 280 274 267 268 270 274 279 283 287 284 272 255 197 139 216 263 268 274 289 304 308 307 309 305 296 284 266 255 254 264 280 280 274 267 262 263 268 275 279 286 290 292 294 295 295 295 292 289 285 282 279 278 277 277 276 276 275 275 276 277 278 278 276 273 270 268
181 192 208 210 225 254 278 285 288 288 288 287 285 283 278 272 268 267 272 274 271 265 262 262 263 266 271 278 278 269 255 205 123 113 183 258 268 278 297 303 312 320 322 313 305 296 279 249 227 237 271 275 274 271 271 271 275 279 283 287 287 286 287 290 292 292 291 287 283 279 276 274 273 272 271 271 272 272 273 274 275 274 272 269 266 266
247 255 260 258 260 267 277 282 283 283 282 280 277 273 268 263 261 262 265 263 259 256 256 258 260 261 262 268 269 268 258 117 112 121 192 255 274 291 312 310 312 315 315 310 308 307 304 295 258 240 273 279 278 279 281 285 289 292 295 294 289 286 285 288 289 288 286 283 280 277 274 271 269 268 267 267 267 267 267 268 268 267 267 266 265 264
283 283 283 283 282 281 280 278 277 277 276 272 267 261 256 253 252 252 253 251 249 249 250 253 256 256 253 254 260 271 290 102 120 135 193 259 282 296 310 304 300 298 291 288 290 294 300 302 307 307 298 293 291 290 289 288 288 290 292 292 290 288 288 288 286 285 282 280 277 273 270 268 266 265 264 263 263 262 262 261 260 259 259 260 261 261
285 283 280 278 275 272 269 268 267 266 265 262 257 251 245 240 236 234 236 239 241 243 245 248 251 252 251 249 253 262 280 265 120 125 167 268 288 293 296 292 290 289 287 279 275 275 280 288 296 300 299 297 295 293 290 286 284 284 287 290 292 292 292 290 288 285 284 282 278 273 268 265 262 260 260 259 258 258 257 256 254 253 253 256 258 260
278 276 273 270 267 265 263 261 260 258 255 253 247 241 233 224 217 213 216 224 231 237 242 246 251 254 255 254 253 255 263 267 95 99 156 273 281 283 286 284 283 284 285 280 277 275 273 280 287 294 297 297 295 292 289 285 284 285 288 292 293 293 293 291 289 288 287 284 280 274 267 262 257 254 254 253 253 253 252 252 251 249 249 252 255 257
272 271 268 265 264 263 263 262 260 256 250 245 240 232 224 216 209 202 200 209 218 227 238 246 254 260 263 265 264 263 264 279 52 61 323 290 284 283 282 276 277 280 282 281 282 282 281 283 288 293 298 298 295 289 283 282 283 285 287 285 284 283 285 287 288 288 287 283 278 273 269 263 257 252 251 250 250 251 252 252 251 250 250 251 252 254
271 269 267 264 264 265 267 267 265 260 253 244 235 226 221 215 210 206 205 212 220 230 237 245 252 260 266 270 271 272 276 292 314 326 307 294 287 284 278 274 275 277 280 282 282 284 286 287 290 292 292 292 290 288 283 287 290 291 286 283 282 283 285 287 287 286 284 280 277 274 271 268 265 261 257 255 256 256 256 256 255 254 253 253 253 254
271 270 268 266 265 266 268 267 265 261 257 249 239 231 227 222 220 219 218 222 230 241 248 251 252 254 254 259 263 268 275 283 288 290 288 287 284 278 274 273 273 274 275 279 282 285 287 289 289 289 285 283 284 289 298 304 303 299 293 293 294 294 293 289 285 281 278 276 275 275 275 274 274 271 268 263 260 259 258 257 256 255 254 254 254 255
271 271 271 268 265 262 263 262 261 259 259 256 250 246 244 242 240 238 233 227 228 235 243 247 249 251 252 256 260 265 269 273 277 280 281 280 275 271 268 270 269 268 268 272 277 281 283 285 287 286 284 283 286 292 301 305 303 299 297 298 297 294 290 285 281 277 275 274 274 275 275 275 275 274 272 267 263 260 259 256 253 252 252 253 253 253
272 274 275 272 266 261 259 261 262 262 263 263 265 264 262 258 254 250 244 232 225 226 233 241 247 252 253 256 259 260 261 263 264 265 264 261 259 260 261 263 264 264 264 266 267 269 272 274 277 281 286 290 293 295 297 298 298 299 300 299 294 288 283 282 282 281 280 278 277 274 272 271 270 269 269 266 264 262 260 259 255 251 250 250 251 252
276 276 277 275 274 272 269 268 268 268 266 266 266 265 263 258 254 249 244 234 226 223 226 233 241 249 251 251 252 252 252 250 247 243 238 233 235 242 250 253 257 259 260 259 258 258 260 264 268 273 279 284 289 292 294 292 292 293 296 295 292 287 287 290 291 289 285 280 277 274 272 271 270 269 267 265 262 260 259 259 257 253 249 250 253 254
282 279 277 277 276 273 269 266 266 266 266 264 260 256 251 248 245 242 238 233 228 226 227 230 237 245 248 247 247 247 246 242 239 235 227 218 219 227 240 246 250 254 256 255 255 254 254 259 264 269 272 276 280 284 284 284 284 286 287 287 288 290 294 291 287 281 276 272 270 270 272 273 272 270 268 265 263 260 259 260 259 258 253 251 252 255
282 282 284 282 276 267 262 263 263 261 260 257 253 250 247 244 242 241 240 238 235 235 235 240 248 254 257 254 249 245 241 235 231 227 220 211 210 217 228 236 243 247 251 252 252 251 251 254 259 263 267 272 276 279 279 280 281 281 281 283 287 290 289 283 274 268 264 266 268 269 271 272 271 269 268 267 266 264 263 261 260 258 256 253 251 251
280 283 289 290 292 291 289 279 269 260 253 249 247 246 244 241 241 242 246 248 249 248 248 252 258 264 268 268 263 253 240 230 226 223 217 207 204 209 221 229 235 240 243 247 250 250 250 250 254 258 263 267 271 275 278 280 280 279 276 278 282 285 286 282 279 278 277 278 278 277 276 274 273 273 272 272 271 269 266 262 259 255 252 251 250 249
286 290 294 296 294 291 283 273 263 255 249 248 247 245 243 238 236 236 240 245 248 249 248 250 256 261 266 267 267 263 251 230 222 220 221 211 205 207 218 227 232 236 239 244 249 253 254 252 253 254 257 261 265 268 272 275 277 277 275 274 273 273 272 278 283 285 284 280 277 274 273 274 275 276 275 273 271 268 264 260 256 252 248 247 247 247
286 288 287 284 280 275 269 265 261 257 253 251 250 247 244 238 234 231 232 239 244 247 247 249 254 259 259 259 260 261 260 242 225 217 219 215 211 211 217 225 231 234 237 240 245 251 256 258 259 260 260 260 262 264 267 271 274 275 274 271 269 266 264 268 272 274 273 271 269 267 267 270 273 276 275 274 272 268 264 261 257 254 250 247 245 246
269 270 270 269 269 269 269 267 266 262 258 254 251 248 245 239 234 232 233 236 242 245 246 246 248 252 256 257 258 257 257 251 239 228 220 215 212 213 217 222 227 232 235 238 241 245 249 255 260 264 265 264 262 261 262 266 269 272 273 271 270 268 267 267 266 266 265 266 266 266 266 269 271 273 273 274 272 269 265 261 258 256 254 251 248 247
259 263 265 266 267 266 266 263 262 259 257 253 250 247 244 241 236 233 233 234 237 241 243 240 241 244 249 252 253 252 252 252 252 249 240 225 217 214 216 221 226 231 237 239 241 243 245 248 251 255 260 262 263 263 261 262 265 268 271 272 272 272 271 269 267 266 265 265 266 267 268 270 270 269 270 272 272 270 267 264 261 259 257 255 253 251
260 262 265 266 267 267 266 262 259 258 257 256 253 249 243 239 237 234 235 232 233 235 238 237 238 241 246 248 249 250 253 254 256 257 255 243 231 223 223 227 231 234 238 242 244 246 247 246 246 247 249 253 258 262 264 263 264 266 269 271 271 271 270 270 269 268 267 265 264 263 263 263 264 266 270 273 273 272 271 268 265 262 259 258 256 255
256 259 262 264 266 266 267 265 263 262 261 260 258 253 244 237 235 235 237 235 234 234 235 237 239 242 245 246 247 248 250 251 251 251 252 249 243 238 238 242 244 246 248 250 251 253 253 250 246 242 240 242 247 254 259 261 263 264 265 266 267 269 270 270 270 269 267 265 258 252 246 251 256 261 268 272 273 273 273 272 270 267 263 260 258 256
249 252 255 258 261 264 266 267 267 266 265 263 260 256 249 240 234 232 236 237 237 237 237 238 240 243 246 247 247 247 246 246 245 246 246 244 240 238 242 247 253 258 261 261 259 258 258 254 246 238 231 230 232 239 249 254 258 260 262 263 264 265 266 267 267 266 265 265 261 254 247 249 252 256 261 267 271 273 274 273 270 268 264 260 258 256
244 247 249 252 255 258 262 264 265 265 264 262 261 258 253 246 238 233 232 234 236 237 238 238 240 243 246 248 248 247 245 243 243 243 243 239 235 233 236 242 249 255 260 262 263 262 261 262 256 244 230 222 220 222 233 241 249 255 259 259 259 259 261 264 265 265 265 267 266 263 258 256 256 256 257 262 268 271 273 272 270 269 266 264 262 261